[[{"header":{"parameterUnit":"m.s-1","parameterCategory":1,"la1":30.2991,"la2":30.254,"lo1":-89.0895,"lo2":-89.0444,"dx":0.0017,"dy":0.0017,"nx":28,"ny":28,"refTime":"2022-12-18T15:00:00:Z","depth":0,"parameterNumber":2,"parameterNumberName":"U-component_of_WINDS"},"data":[0,0,0,0,0,0,0,0,0,0,0,0,0,0,0,0,0,0,0,0,0,0,0,0,0,0,0,0,0,0,0,0,0,0,0,0,0,0,0,0,0,0,0,0,0,0,0,0,0,0,0,0,0,0,0,0,0,0,-2.3377,-2.3374,0,-2.3041,-2.3037,-2.3034,-2.28,-2.2798,-2.2797,-2.2795,-2.2454,-2.2447,-2.244,0,0,0,0,0,0,0,0,0,0,0,0,0,-2.3819,-2.3812,-2.3378,-2.3374,-2.3369,-2.3042,-2.3037,-2.3033,-2.28,-2.2798,-2.2796,-2.2794,-2.2457,-2.2448,-2.2439,0,0,0,0,0,0,0,0,0,0,0,0,0,-2.357,-2.381,-2.3379,-2.3214,-2.3196,-2.3043,-2.3037,-2.3031,-2.2801,-2.2798,-2.2796,-2.2793,-2.246,-2.2449,-2.2438,-2.2423,0,0,-2.2404,-2.2399,0,0,0,0,0,0,0,0,-2.3584,-2.3554,-2.3242,-2.3225,-2.3204,-2.296,-2.3067,-2.2828,-2.2802,-2.2951,-2.2795,-2.2792,-2.2625,-2.26,-2.2543,-2.2407,-2.2392,-2.2403,-2.2396,-2.2391,-2.2388,0,0,0,0,0,0,0,-2.3602,-2.3567,-2.3245,-2.3238,-2.3215,-2.3157,-2.3118,-2.3021,-2.2807,-2.2938,-2.292,-2.2883,-2.2614,-2.2554,-2.2533,-2.2387,-2.2403,-2.2393,-2.2387,-2.2382,-2.2219,-2.2221,0,0,0,0,0,0,-2.3644,-2.3583,-2.3255,-2.3235,-2.3391,-2.3151,-2.3108,-2.3041,-2.2808,-2.2769,-2.2886,-2.2874,-2.2575,-2.2546,-2.252,-2.2485,-2.2392,-2.2381,-2.2375,-2.2217,-2.2219,-2.2222,0,0,0,0,0,0,-2.3655,-2.3617,-2.3269,-2.3403,-2.3355,-2.3146,-2.3073,-2.3036,-2.2976,-2.2768,-2.2729,-2.2864,-2.2571,-2.2536,-2.2448,-2.2471,-2.2376,-2.2366,-2.2214,-2.2217,-2.2221,-2.2418,0,0,0,0,0,0,-2.3669,-2.3623,-2.3615,-2.3405,-2.3348,-2.3203,-2.3074,-2.3031,-2.2957,-2.2938,-2.2737,-2.2702,-2.2566,-2.2466,-2.2437,-2.2454,-2.2357,-2.2211,-2.2215,-2.222,-2.2409,-2.2428,-2.2444,0,0,0,0,0,-2.3685,-2.3686,-2.3616,-2.3578,-2.3335,-2.3204,-2.3172,-2.3015,-2.296,-2.295,-2.2816,-2.2708,-2.2473,-2.2459,-2.2424,-2.2438,-2.2209,-2.2214,-2.2219,-2.2401,-2.2424,-2.2444,0,0,0,0,0,0,-2.3905,-2.3655,-2.3575,-2.3508,-2.3379,-2.3165,-2.3149,-2.3046,-2.2931,-2.2918,-2.2729,-2.2686,-2.2617,-2.2518,-2.2507,-2.241,-2.2327,-2.2326,-2.2477,-2.2498,-2.2515,-2.2541,-2.2348,0,0,0,0,0,-2.3946,-2.3861,-2.3647,-2.3608,-2.3547,-2.336,-2.3297,-2.3187,-2.3046,-2.2991,-2.2851,-2.2719,-2.2614,-2.255,-2.2443,-2.2392,-2.2345,-2.2385,-2.2403,-2.2418,-2.242,-2.2384,-2.2398,-2.2239,-2.2239,-2.2239,0,0,-2.4029,-2.3882,-2.384,-2.3648,-2.3535,-2.3451,-2.3315,-2.3233,-2.3168,-2.2979,-2.2886,-2.2779,-2.2619,-2.2549,-2.2511,-2.2465,-2.2453,-2.2425,-2.2439,-2.2431,-2.2391,-2.2406,-2.242,-2.2243,-2.2242,-2.2241,0,0,-2.4138,-2.4019,-2.3972,-2.3861,-2.3691,-2.3565,-2.3555,-2.3355,-2.3276,-2.3179,-2.3035,-2.2955,-2.2781,-2.2672,-2.2594,-2.2658,-2.2554,-2.2629,-2.2723,-2.269,-2.2702,-2.2712,-2.2735,-2.2745,-2.263,-2.2631,-2.2631,0,-2.4264,-2.4131,-2.3961,-2.3886,-2.3805,-2.3627,-2.3578,-2.3478,-2.3284,-2.3232,-2.3182,-2.2956,-2.2836,-2.2738,-2.2753,-2.2696,-2.2677,-2.2651,-2.2714,-2.2722,-2.2729,-2.2749,-2.2758,-2.2641,-2.264,-2.2639,-2.2638,0,-2.4293,-2.4203,-2.4185,-2.3999,-2.3916,-2.3855,-2.3675,-2.3611,-2.3508,-2.3388,-2.3291,-2.314,-2.2999,-2.2967,-2.2866,-2.2853,-2.2829,-2.275,-2.2663,-2.2758,-2.2772,-2.2778,-2.2656,-2.2652,-2.2649,-2.2646,0,0,-2.4534,-2.4252,-2.4249,-2.4161,-2.3958,-2.3885,-2.3815,-2.3674,-2.3623,-2.3493,-2.3429,-2.3284,-2.3207,-2.3119,-2.3004,-2.2975,-2.3034,-2.2897,-2.2891,-2.2928,-2.3009,-2.3071,-2.3083,-2.2963,-2.2964,-2.2964,-2.3022,0,-2.4612,-2.4475,-2.4319,-2.4237,-2.415,-2.3978,-2.3916,-2.3786,-2.3671,-2.3581,-2.3454,-2.3354,-2.3261,-2.3206,-2.3169,-2.3035,-2.3048,-2.3028,-2.2902,-2.29,-2.2948,-2.309,-2.3156,-2.3218,-2.3027,-2.3028,-2.3029,0,-2.4685,-2.4562,-2.4471,-2.4274,-2.4232,-2.4179,-2.4036,-2.3952,-2.38,-2.3718,-2.3618,-2.3494,-2.341,-2.3334,-2.3216,-2.3206,-2.3145,-2.3071,-2.3069,-2.3052,-2.2971,-2.3077,-2.3234,-2.3244,-2.3036,-2.3035,-2.3035,0,-2.487,-2.4681,-2.4601,-2.4532,-2.43,-2.4267,-2.4169,-2.4013,-2.3938,-2.3813,-2.3762,-2.363,-2.3558,-2.3459,-2.3302,-2.3261,-2.3201,-2.3112,-2.3131,-2.3136,-2.3128,-2.3131,-2.3278,-2.3088,-2.3088,-2.3088,-2.3088,0,-2.4974,-2.4925,-2.4681,-2.4633,-2.4572,-2.4392,-2.4336,-2.4223,-2.4086,-2.4011,-2.3855,-2.3789,-2.3585,-2.3495,-2.3372,-2.3293,-2.3261,-2.3193,-2.3161,-2.3207,-2.3216,-2.3166,-2.3157,-2.309,-2.309,-2.3089,-2.3089,0,-2.5171,-2.5006,-2.4907,-2.4695,-2.464,-2.4605,-2.4422,-2.4368,-2.4243,-2.4151,-2.4119,-2.3923,-2.3808,-2.3641,-2.3477,-2.3394,-2.3333,-2.3281,-2.3385,-2.3366,-2.3395,-2.3395,-2.3515,-2.3521,-2.333,-2.3332,-2.3334,0,-2.5249,-2.5206,-2.4989,-2.4927,-2.4833,-2.4737,-2.4658,-2.4478,-2.4403,-2.4224,-2.4191,-2.4064,-2.3952,-2.3777,-2.3621,-2.3493,-2.3437,-2.3488,-2.3417,-2.3465,-2.3438,-2.3443,-2.3437,-2.3506,-2.3509,-2.3511,-2.3513,0,-2.5404,-2.5323,-2.5216,-2.5079,-2.4989,-2.4873,-2.4749,-2.4708,-2.4501,-2.4424,-2.4304,-2.4217,-2.4047,-2.3923,-2.3774,-2.3672,-2.3559,-2.3536,-2.3534,-2.3581,-2.3643,-2.361,-2.3431,-2.3535,-2.3533,-2.3531,-2.353,-2.3529,-2.5543,-2.5496,-2.5335,-2.522,-2.5107,-2.4994,-2.4932,-2.4798,-2.4694,-2.4541,-2.444,-2.4326,-2.4171,-2.3958,-2.3863,-2.377,-2.3723,-2.372,-2.3719,-2.3721,-2.3738,-2.3657,-2.3742,-2.3741,-2.3741,-2.374,-2.3739,0,-2.569,-2.5577,-2.5472,-2.5303,-2.5212,-2.511,-2.4967,-2.4898,-2.4798,-2.4663,-2.4555,-2.4416,-2.4293,-2.4126,-2.3991,-2.3949,-2.3894,-2.392,-2.3922,-2.39,-2.3788,-2.3803,-2.3967,-2.3967,-2.3967,-2.3967,-2.3967,-2.3967,-2.5756,-2.5671,-2.5571,-2.5429,-2.5315,-2.52,-2.5127,-2.5022,-2.4912,-2.4764,-2.466,-2.4551,-2.4402,-2.4255,-2.4138,-2.4091,-2.405,-2.4092,-2.4031,-2.3929,-2.3908,-2.3889,-2.3902,-2.4085,-2.4085,-2.415,-2.4151,-2.4152]},{"header":{"parameterUnit":"m.s-1","parameterCategory":1,"la1":30.2991,"la2":30.254,"lo1":-89.0895,"lo2":-89.0444,"dx":0.0017,"dy":0.0017,"nx":28,"ny":28,"refTime":"2022-12-18T15:00:00:Z","depth":0,"parameterNumber":3,"parameterNumberName":"V-component_of_WINDS"},"data":[0,0,0,0,0,0,0,0,0,0,0,0,0,0,0,0,0,0,0,0,0,0,0,0,0,0,0,0,0,0,0,0,0,0,0,0,0,0,0,0,0,0,0,0,0,0,0,0,0,0,0,0,0,0,0,0,0,0,-7.0549,-7.055,0,-7.0633,-7.0634,-7.0635,-7.0471,-7.0465,-7.046,-7.0455,-7.0541,-7.0548,-7.0555,0,0,0,0,0,0,0,0,0,0,0,0,0,-7.0248,-7.0255,-7.0549,-7.055,-7.0551,-7.0633,-7.0634,-7.0635,-7.0472,-7.0465,-7.0458,-7.0452,-7.0538,-7.0547,-7.0556,0,0,0,0,0,0,0,0,0,0,0,0,0,-7.036,-7.0257,-7.0549,-7.048,-7.0474,-7.0633,-7.0634,-7.0635,-7.0473,-7.0465,-7.0457,-7.0449,-7.0536,-7.0546,-7.0557,-7.0787,0,0,-7.0591,-7.0595,0,0,0,0,0,0,0,0,-7.0354,-7.0371,-7.0489,-7.0485,-7.0479,-7.0533,-7.0559,-7.0686,-7.0475,-7.0474,-7.0455,-7.0445,-7.0545,-7.0555,-7.0588,-7.0791,-7.0795,-7.0592,-7.0598,-7.0603,-7.0606,0,0,0,0,0,0,0,-7.0347,-7.0367,-7.0582,-7.0491,-7.0485,-7.0444,-7.0451,-7.0583,-7.0554,-7.0473,-7.0461,-7.0473,-7.0541,-7.0578,-7.0589,-7.0796,-7.0591,-7.0601,-7.0608,-7.0612,-7.1193,-7.1202,0,0,0,0,0,0,-7.0347,-7.0362,-7.058,-7.0585,-7.0395,-7.0456,-7.0464,-7.0524,-7.0552,-7.0548,-7.048,-7.0465,-7.0563,-7.0576,-7.0591,-7.0864,-7.0603,-7.0613,-7.062,-7.1184,-7.1195,-7.1205,0,0,0,0,0,0,-7.0342,-7.0368,-7.0576,-7.047,-7.0493,-7.047,-7.0539,-7.053,-7.0567,-7.0557,-7.0551,-7.0524,-7.0557,-7.0576,-7.074,-7.0864,-7.0618,-7.0628,-7.1174,-7.1188,-7.12,-7.141,0,0,0,0,0,0,-7.0334,-7.0367,-7.0455,-7.0473,-7.05,-7.0724,-7.0546,-7.0537,-7.0586,-7.0568,-7.0596,-7.0593,-7.0552,-7.0724,-7.0751,-7.0875,-7.0637,-7.1163,-7.118,-7.1196,-7.1392,-7.1429,-7.1461,0,0,0,0,0,-7.0324,-7.051,-7.046,-7.0487,-7.0608,-7.0732,-7.0747,-7.0696,-7.0597,-7.0685,-7.0678,-7.0593,-7.0846,-7.0743,-7.0771,-7.0901,-7.1155,-7.1175,-7.1194,-7.1377,-7.1422,-7.146,0,0,0,0,0,0,-7.0506,-7.0511,-7.0456,-7.0654,-7.0694,-7.0704,-7.0813,-7.0745,-7.0813,-7.0793,-7.0727,-7.0735,-7.0912,-7.0922,-7.0807,-7.1125,-7.0984,-7.101,-7.1113,-7.1155,-7.1189,-7.1184,-7.0646,0,0,0,0,0,-7.057,-7.067,-7.0668,-7.0843,-7.0866,-7.0837,-7.0888,-7.0846,-7.0884,-7.09,-7.0906,-7.0947,-7.1035,-7.1095,-7.1176,-7.1392,-7.1396,-7.1495,-7.1529,-7.1557,-7.1582,-7.1698,-7.1742,-7.127,-7.127,-7.1269,0,0,-7.0702,-7.0717,-7.0784,-7.0881,-7.0906,-7.1012,-7.0852,-7.097,-7.1047,-7.0918,-7.1074,-7.108,-7.112,-7.1312,-7.1396,-7.1326,-7.1713,-7.1583,-7.1605,-7.1614,-7.1723,-7.1768,-7.1807,-7.1283,-7.1281,-7.1279,0,0,-7.0997,-7.1018,-7.1167,-7.1196,-7.1237,-7.1216,-7.1252,-7.1273,-7.1272,-7.1427,-7.1333,-7.1424,-7.1578,-7.1611,-7.1649,-7.1957,-7.1882,-7.1985,-7.2165,-7.2279,-7.2317,-7.2349,-7.2461,-7.2502,-7.2009,-7.201,-7.201,0,-7.1156,-7.1311,-7.1252,-7.1377,-7.1423,-7.131,-7.1461,-7.1492,-7.1558,-7.1593,-7.1512,-7.1704,-7.1723,-7.1922,-7.1997,-7.203,-7.207,-7.1983,-7.2316,-7.2348,-7.2378,-7.2484,-7.2526,-7.2022,-7.2021,-7.202,-7.2018,0,-7.1505,-7.1615,-7.173,-7.1797,-7.1855,-7.1993,-7.1955,-7.2021,-7.1973,-7.1961,-7.2121,-7.214,-7.2224,-7.2267,-7.2222,-7.246,-7.2415,-7.2327,-7.2184,-7.2436,-7.2535,-7.2575,-7.204,-7.2036,-7.2032,-7.2029,0,0,-7.1919,-7.1952,-7.1996,-7.2025,-7.2063,-7.2146,-7.2278,-7.236,-7.2419,-7.2468,-7.2579,-7.2712,-7.263,-7.2673,-7.2629,-7.2729,-7.2975,-7.2628,-7.2628,-7.2694,-7.3241,-7.331,-7.3358,-7.2924,-7.2931,-7.2937,-7.3238,0,-7.2213,-7.2442,-7.2392,-7.2617,-7.2718,-7.2613,-7.2728,-7.2764,-7.2756,-7.2841,-7.2831,-7.2928,-7.2811,-7.2837,-7.293,-7.2925,-7.3084,-7.2902,-7.3027,-7.3032,-7.3023,-7.3409,-7.3481,-7.3765,-7.3276,-7.3283,-7.3287,0,-7.2586,-7.2651,-7.2887,-7.2909,-7.2949,-7.3054,-7.3126,-7.3208,-7.3246,-7.3233,-7.3282,-7.322,-7.3351,-7.3206,-7.3387,-7.3264,-7.3312,-7.3317,-7.3327,-7.3338,-7.3177,-7.3433,-7.3854,-7.3898,-7.3347,-7.3342,-7.3338,0,-7.2867,-7.3012,-7.3172,-7.3201,-7.3231,-7.3307,-7.3323,-7.3353,-7.3406,-7.3469,-7.3503,-7.358,-7.3623,-7.3684,-7.3644,-7.3541,-7.3833,-7.3684,-7.3828,-7.3829,-7.3896,-7.3893,-7.4333,-7.3923,-7.3922,-7.3922,-7.3921,0,-7.3202,-7.3351,-7.3299,-7.3398,-7.3562,-7.3504,-7.3667,-7.367,-7.3699,-7.3797,-7.3709,-7.3803,-7.3744,-7.3833,-7.3802,-7.3958,-7.3977,-7.3971,-7.3962,-7.3981,-7.3982,-7.4013,-7.3994,-7.3933,-7.393,-7.3928,-7.3926,0,-7.3544,-7.3515,-7.3683,-7.3698,-7.3705,-7.3825,-7.3838,-7.393,-7.3915,-7.404,-7.4066,-7.4044,-7.4144,-7.411,-7.4217,-7.4196,-7.4396,-7.436,-7.4384,-7.4376,-7.4523,-7.451,-7.5,-7.5062,-7.461,-7.4615,-7.4618,0,-7.376,-7.3873,-7.39,-7.396,-7.3982,-7.4079,-7.4133,-7.408,-7.414,-7.4193,-7.4279,-7.4372,-7.4443,-7.4609,-7.4602,-7.4684,-7.465,-7.4816,-7.4662,-7.4678,-7.4656,-7.4651,-7.4663,-7.4848,-7.4853,-7.4857,-7.4861,0,-7.4149,-7.4129,-7.421,-7.4288,-7.4355,-7.4414,-7.4464,-7.4517,-7.4467,-7.4539,-7.4641,-7.4697,-7.4807,-7.4901,-7.4975,-7.499,-7.4919,-7.4909,-7.4947,-7.4969,-7.4979,-7.4978,-7.4471,-7.4899,-7.4895,-7.4892,-7.489,-7.4888,-7.4436,-7.4532,-7.4566,-7.466,-7.4693,-7.4742,-7.483,-7.4827,-7.4911,-7.4998,-7.496,-7.5079,-7.5115,-7.5207,-7.5233,-7.5325,-7.5261,-7.5316,-7.533,-7.5345,-7.5365,-7.4963,-7.5338,-7.5337,-7.5336,-7.5335,-7.5334,0,-7.4822,-7.4839,-7.4926,-7.5,-7.5075,-7.5,-7.5052,-7.5119,-7.5225,-7.5264,-7.5337,-7.5455,-7.5546,-7.5547,-7.5631,-7.5705,-7.5674,-7.5729,-7.5724,-7.573,-7.5416,-7.5376,-7.5753,-7.5752,-7.5752,-7.5752,-7.5752,-7.5752,-7.5031,-7.519,-7.5175,-7.5349,-7.5365,-7.5481,-7.5518,-7.5563,-7.5595,-7.5731,-7.5806,-7.5806,-7.5831,-7.5916,-7.5997,-7.5994,-7.6031,-7.6099,-7.6085,-7.5793,-7.5751,-7.5712,-7.5674,-7.6107,-7.6107,-7.639,-7.6393,-7.6395]}]]